DW3648 Weather Reports


time (UTC)temp
C
wind
direction
speed
KPH
gust
KPH
rain 1hr
cm
rain 24hr
cm
rain mn
cm
humidity
%
barometer
mb
20260505061532 8 124 4.8 8.0 0.00 0.00 0.00 75 1008.6
20260505060036 8 113 1.6 11.3 0.00 0.00 0.00 74 1008.5
20260505054531 8 107 6.4 11.3 0.00 0.00 0.00 74 1008.3
20260505053047 8 88 4.8 11.3 0.00 0.00 0.00 75 1008.4
20260505051627 8 118 3.2 8.0 0.00 0.00 0.00 75 1008.4
20260505050104 8 80 1.6 9.7 0.00 0.00 0.00 73 1008.3
20260505041549 8 106 4.8 11.3 0.00 0.00 0.00 73 1008.3
20260505040047 8 95 4.8 11.3 0.00 0.00 0.00 72 1008.4
20260505034559 8 105 3.2 12.9 0.00 0.00 0.00 72 1008.4
20260505033050 9 125 4.8 14.5 0.00 0.00 0.00 71 1008.4
20260505031541 9 72 3.2 14.5 0.00 0.00 0.00 71 1008.5
20260505030037 9 86 6.4 14.5 0.00 0.00 0.00 71 1008.4
20260505024537 9 94 4.8 11.3 0.00 0.00 0.00 71 1008.5
20260505023033 9 106 6.4 11.3 0.00 0.00 0.00 72 1008.6
20260505021533 9 109 6.4 14.5 0.00 0.00 0.00 72 1008.7
20260505020028 9 98 4.8 12.9 0.00 0.00 0.00 71 1008.7
20260505014527 10 120 3.2 8.0 0.00 0.00 0.00 71 1008.7
20260505013021 10 100 6.4 9.7 0.00 0.00 0.00 69 1008.7
20260505011542 10 115 3.2 11.3 0.00 0.00 0.00 68 1008.7
20260505010019 10 119 1.6 6.4 0.00 0.00 0.00 67 1008.9
20260505004514 11 78 0.0 4.8 0.00 0.00 0.00 66 1008.9
20260505003010 11 78 0.0 6.4 0.00 0.00 0.00 65 1009.0
20260505001510 11 98 1.6 9.7 0.00 0.00 0.00 64 1009.1
20260505000007 11 123 3.2 8.0 0.00 0.00 0.00 63 1009.1
20260504234506 12 86 0.0 8.0 0.00 0.00 0.00 63 1009.1
20260504233003 12 115 4.8 8.0 0.00 0.00 0.00 63 1009.1
20260504231505 12 241 1.6 8.0 0.00 0.00 0.00 61 1009.1
20260504230002 12 113 3.2 6.4 0.00 0.00 0.00 61 1009.1
20260504224508 12 115 4.8 8.0 0.00 0.00 0.00 60 1009.1
20260504223059 13 114 1.6 4.8 0.00 0.00 0.00 59 1009.1
20260504221559 13 105 3.2 9.7 0.00 0.00 0.00 57 1009.2
20260504220100 13 99 1.6 8.0 0.00 0.00 0.00 56 1009.2
20260504214607 14 137 1.6 6.4 0.00 0.00 0.00 55 1009.2
20260504213055 15 235 0.0 0.0 0.00 0.00 0.00 53 1009.2
20260504211554 15 235 0.0 4.8 0.00 0.00 0.00 52 1009.2
20260504210058 15 235 0.0 3.2 0.00 0.00 0.00 50 1009.0
20260504204554 15 258 1.6 6.4 0.00 0.00 0.00 49 1008.8
20260504203052 16 255 4.8 12.9 0.00 0.00 0.00 49 1008.6
20260504201549 16 228 0.0 8.0 0.00 0.00 0.00 49 1008.3
20260504200048 16 286 3.2 11.3 0.00 0.00 0.00 48 1008.1
20260504194553 17 284 4.8 14.5 0.00 0.00 0.00 47 1007.9
20260504193045 17 295 1.6 12.9 0.00 0.00 0.00 46 1007.7
20260504191559 17 287 4.8 11.3 0.00 0.00 0.00 45 1007.6
20260504190046 18 269 0.0 12.9 0.00 0.00 0.00 44 1007.3
20260504184543 18 250 6.4 14.5 0.00 0.00 0.00 43 1007.3
20260504183041 19 285 4.8 17.7 0.00 0.00 0.00 40 1007.1
20260504181540 20 289 8.0 16.1 0.00 0.00 0.00 39 1007.0
20260504180039 20 267 8.0 14.5 0.00 0.00 0.00 38 1007.0
20260504174539 20 236 3.2 14.5 0.00 0.00 0.00 38 1007.0
20260504173011 21 251 1.6 16.1 0.00 0.00 0.00 35 1007.1
20260504171516 21 215 4.8 14.5 0.00 0.00 0.00 37 1007.2
20260504081600 14 181 1.6 11.3 0.00 0.00 0.00 72 1008.3